Location: *
(58.7167°N, 26.1833°E)
Time: 17:00:30
(UTC+00:00)

Cosmos 1758 Rocket - Pass Details

Date: 25 August 2019
Orbit: 601 x 637 km, 82.5° (Epoch: 16 September)

Event Time Altitude Azimuth Distance (km) Brightness Sun altitude
Rises 21:56:49 0° 347° (NNW) 2,908 8.6 -20.5°
Reaches altitude 10° 21:59:06 10° 352° (N) 1,992 7.4 -20.6°
Maximum altitude 22:03:27 57° 72° (ENE) 724 3.9 -20.6°
Enters shadow 22:04:36 42° 125° (SE) 873 4.0 -20.6°
